Regional Weather Roundup
Issued by NWS Lake Charles, LA

Home | Current Version | Previous Version | Text Only | Print | Product List | Glossary On
Versions: 1 2 3 4 5 6 7 8 9 10 11 12 13 14 15 16 17 18 19 20 21 22 23 24 25 26 27
000
ASUS44 KLCH 190010
RWRLCH
REGIONAL WEATHER ROUNDUP
NATIONAL WEATHER SERVICE LAKE CHARLES LA
700 PM CDT FRI AUG 18 2017

Note: "fair" indicates few or no clouds below 12,000 feet with no
significant weather and/or obstructions to visibility.


ACROSS SOUTHEAST TEXAS

CITY           SKY/WX    TMP DP  RH WIND       PRES   REMARKS
BEAUMONT       MOSUNNY   88  75  65 S5        29.96S
BEAUMONT CITY  FAIR      90  77  66 MISG      29.97S HX 102
ORANGE         CLOUDY    89  79  72 S7        29.98S HX 103
JASPER           N/A     93  75  55 CALM      29.98F HX 104
$$

ACROSS CENTRAL LOUISIANA

CITY           SKY/WX    TMP DP  RH WIND       PRES   REMARKS
LEESVILLE      SUNNY     91  71  52 CALM      29.96S
FULLERTON      FAIR      89  77  67 CALM      29.94S HX 101
ALEXANDRIA INT CLEAR     89  77  67 CALM      29.95F HX 101
ESLER FIELD    CLEAR     90  80  72 CALM      29.97S HX 107
DERIDDER       FAIR      92  70  47 CALM      29.98F
OAKDALE        CLEAR     89  79  71 CALM      29.96F HX 105
OPELOUSAS      FAIR      89  78  70 CALM      29.97S HX 103
$$

ACROSS SOUTHWEST AND SOUTH CENTRAL LOUISIANA

CITY           SKY/WX    TMP DP  RH WIND       PRES   REMARKS
SULPHUR        CLEAR     91  76  61 S3        29.98S HX 102
LAKE CHARLES   CLEAR     89  77  67 SW6       29.97R HX 101
CHENNAULT INT  PTCLDY    90  77  66 SW7       29.97S HX 102
CAMERON PHI    CLEAR     88  75  66 SW8       29.97S
DEQUINCY       FAIR      90  76  62 CALM      29.97S HX 102
JENNINGS       FAIR      91  75  60 CALM      29.97S HX 101
LAFAYETTE      CLEAR     92  76  59 CALM      29.97S HX 104
NEW IBERIA     CLEAR     89  75  63 S7        29.97F
ABBEVILLE      FAIR      88  81  79 S6        29.98R HX 105
PATTERSON      MOCLDY    88  80  77 SW5       29.99S HX 104
SALT POINT       N/A     89  77  67 SW5       29.96F HX 101
$$

SELECTED SITES ACROSS THE REGION

CITY           SKY/WX    TMP DP  RH WIND       PRES   REMARKS
HOUSTON BUSH   MOSUNNY   92  76  59 SE12      29.95S HX 104
HOUSTON HOBBY  MOSUNNY   93  74  53 SE9       29.95R HX 103
GALVESTON      SUNNY     88  78  72 S12       29.98S HX 101
COLLEGE STAT   SUNNY     97  68  38 S6        29.93F HX 102
CONROE         SUNNY     93  72  50 SE6       29.95S HX 101
HUNTSVILLE     NOT AVBL
LUFKIN         SUNNY     94  68  42 S3        29.95F
SHREVEPORT     MOSUNNY   91  72  53 NW3       29.95F
MONROE         CLEAR     91  73  55 W6        29.96F
NATCHEZ MS     CLEAR     89  79  72 CALM      29.98F HX 104
BATON ROUGE    CLEAR     91  74  57 N3        29.97S HX 100
N.O. INTL ARPT PTCLDY    93  70  46 NW3       29.98R
SLIDELL        CLEAR     90  73  57 CALM      29.97S
$$

MARINE REPORTS

STATION/POSITION TIME  SKY/WX   TEMP    WIND        PRES    VSBY
                                AIR SEA DIR/SP/G
                 (UTC)          (F)     (DEG/KT/KT) (MB)    (MI)
BUOY 30 S HIGH I NOT AVBL
SEA RIM ST PARK  2300            88     180/  8/  9 1015.5F
PORT ARTHUR      2348            88 88  210/  5/  8 1015.1F
SABINE PASS N    2348                   200/  6/  8 1016.6F
TEXAS POINT      NOT AVBL
CALCASIEU PASS   2342               89  230/  9/ 11 1014.2F
LK CHARLES BEACH 2348            90 86              1015.3S
MARSH ISLAND     2300            89                   N/A
FRESH WATER LOCK 2348            87 90  200/  6/  8 1015.2F
AMERADA PASS     2348            89 90   CALM  /  3 1015.3F
$$




USA.gov is the U.S. government's official web portal to all federal, state and local government web resources and services.